EDXW Weather Reports


Display with metric or nautical units.
time (UTC)temp
F
wind
direction
speed
MPH
gust
MPH
rain 1hr
in
rain 24hr
in
rain mn
in
humidity
%
barometer
mb
20260509021002 42 110 8.0 0.0 0.00 0.00 0.00 90 1022.0
20260509011001 44 100 9.0 0.0 0.00 0.00 0.00 90 1022.0
20260508211002 50 110 10.0 0.0 0.00 0.00 0.00 65 1022.0
20260508201001 53 100 14.0 0.0 0.00 0.00 0.00 45 1022.0
20260508191001 53 100 14.0 0.0 0.00 0.00 0.00 45 1022.0
20260508181002 55 100 15.0 0.0 0.00 0.00 0.00 35 1021.0
20260508171001 59 100 16.0 0.0 0.00 0.00 0.00 25 1021.0
20260508161001 57 0 0.0 0.0 0.00 0.00 0.00 60 1021.0
20260508151002 57 340 11.0 0.0 0.00 0.00 0.00 50 1021.0
20260508141001 57 320 9.0 0.0 0.00 0.00 0.00 60 1021.0
20260508131002 55 320 9.0 0.0 0.00 0.00 0.00 60 1021.0
20260508121002 59 240 6.0 0.0 0.00 0.00 0.00 50 1021.0
20260508111002 59 190 6.0 0.0 0.00 0.00 0.00 45 1022.0
20260508101002 57 180 9.0 0.0 0.00 0.00 0.00 50 1022.0
20260508091002 57 170 10.0 0.0 0.00 0.00 0.00 45 1022.0
20260508081001 57 130 10.0 0.0 0.00 0.00 0.00 50 1021.0
20260508071001 55 140 10.0 0.0 0.00 0.00 0.00 60 1021.0
20260508061002 51 130 10.0 0.0 0.00 0.00 0.00 65 1020.0
20260508041002 44 110 8.0 0.0 0.00 0.00 0.00 85 1020.0
20260508031001 42 120 7.0 0.0 0.00 0.00 0.00 90 1020.0